TimeEST,TemperatureF,Dew PointF,Humidity,Sea Level PressureIn,VisibilityMPH,Wind Direction,Wind SpeedMPH,Gust SpeedMPH,PrecipitationIn,Events,Conditions,WindDirDegrees,DateUTC
12:53 AM,25.0,19.0,78,29.84,10.0,SSE,3.5,-,N/A,,Overcast,160,2013-02-13 05:53:00
1:53 AM,26.1,19.9,78,29.83,10.0,SSW,3.5,-,N/A,,Overcast,200,2013-02-13 06:53:00
2:53 AM,27.0,19.9,75,29.81,10.0,SSW,6.9,-,N/A,,Mostly Cloudy,200,2013-02-13 07:53:00
3:53 AM,28.0,21.0,75,29.79,10.0,South,5.8,-,N/A,,Overcast,190,2013-02-13 08:53:00
4:53 AM,28.0,21.9,78,29.78,10.0,South,5.8,-,N/A,,Overcast,180,2013-02-13 09:53:00
5:53 AM,28.0,23.0,81,29.76,10.0,South,5.8,-,N/A,,Overcast,190,2013-02-13 10:53:00
6:53 AM,28.0,23.0,81,29.74,8.0,South,4.6,-,N/A,,Mostly Cloudy,180,2013-02-13 11:53:00
7:05 AM,28.4,23.0,80,29.71,7.0,Variable,3.5,-,N/A,,Mostly Cloudy,0,2013-02-13 12:05:00
7:53 AM,28.9,24.1,82,29.73,5.0,South,5.8,-,N/A,,Haze,180,2013-02-13 12:53:00
8:53 AM,28.9,25.0,85,29.72,5.0,Variable,5.8,-,N/A,,Mostly Cloudy,0,2013-02-13 13:53:00
9:41 AM,32.0,26.6,80,29.69,6.0,SW,4.6,-,N/A,,Haze,230,2013-02-13 14:41:00
9:53 AM,33.1,26.1,75,29.72,6.0,SW,8.1,-,N/A,,Haze,230,2013-02-13 14:53:00
10:53 AM,34.0,27.0,75,29.71,6.0,SW,8.1,17.3,N/A,,Haze,230,2013-02-13 15:53:00
11:53 AM,36.0,27.0,70,29.70,7.0,SW,10.4,17.3,N/A,,Mostly Cloudy,230,2013-02-13 16:53:00
12:47 PM,35.6,26.6,70,29.66,8.0,SW,9.2,-,N/A,,Overcast,220,2013-02-13 17:47:00
12:53 PM,37.0,27.0,67,29.68,8.0,SW,10.4,16.1,N/A,,Overcast,230,2013-02-13 17:53:00
1:53 PM,37.9,26.1,62,29.68,9.0,WSW,6.9,-,N/A,,Overcast,240,2013-02-13 18:53:00
2:53 PM,37.9,26.1,62,29.67,10.0,WSW,8.1,-,N/A,,Overcast,240,2013-02-13 19:53:00
3:53 PM,37.9,28.0,68,29.68,10.0,SSW,5.8,-,N/A,,Overcast,210,2013-02-13 20:53:00
4:53 PM,37.9,26.1,62,29.68,10.0,SW,5.8,-,N/A,,Overcast,230,2013-02-13 21:53:00
5:53 PM,37.0,26.1,65,29.68,10.0,SW,4.6,-,N/A,,Overcast,220,2013-02-13 22:53:00
6:53 PM,36.0,27.0,70,29.68,10.0,SSW,3.5,-,N/A,,Overcast,210,2013-02-13 23:53:00
7:53 PM,35.1,27.0,72,29.69,8.0,Variable,4.6,-,N/A,,Overcast,0,2013-02-14 00:53:00
8:53 PM,35.1,27.0,72,29.68,8.0,Variable,5.8,-,N/A,,Overcast,0,2013-02-14 01:53:00
9:53 PM,35.1,28.0,76,29.68,7.0,Variable,3.5,-,N/A,,Overcast,0,2013-02-14 02:53:00
10:53 PM,34.0,28.0,79,29.67,6.0,South,3.5,-,N/A,,Haze,190,2013-02-14 03:53:00
11:53 PM,34.0,28.9,82,29.67,6.0,Calm,Calm,-,N/A,,Haze,0,2013-02-14 04:53:00